Weather History for Versailles, OH

Change the Weather History Date:

Friday, August 23, 2013

  Actual Average (KDAY) Record (KDAY)
Temperature  
Mean Temperature 71 °F 72 °F  
Max Temperature 80 °F 82 °F 99 °F (1898)
Min Temperature 62 °F 62 °F 45 °F (1902)
Degree Days  
Heating Degree Days 0 0  
Month to date heating degree days 0  
Since 1 June heating degree days 22  
Since 1 July heating degree days 0  
Cooling Degree Days 6 7  
Month to date cooling degree days 189  
Year to date cooling degree days 728  
Since 1 June cooling degree days 658  
Growing Degree Days 21 (Base 50)    
Moisture  
Dew Point 64 °F    
Average Humidity 86    
Maximum Humidity 100    
Minimum Humidity 51    
Precipitation  
Precipitation 0.00 in 0.09 in 0.72 in (1942)
Month to date precipitation 2.19  
Year to date precipitation 27.51  
Snow  
Snow 0.00 in 0.00 in - (0.0)
Month to date snowfall 0.0  
Since 1 June snowfall 0.0  
Since 1 July snowfall 0.0  
Snow Depth -    
Sea Level Pressure  
Sea Level Pressure 30.12 in    
Wind  
Wind Speed 4 mph (NNE)    
Max Wind Speed 10 mph    
Max Gust Speed -    
Visibility 6 miles    
Events Fog    
T = Trace of Precipitation, MM = Missing Value Source: NWS Daily Summary

Daily Weather History Graph

Daily Weather History Graph

Search for Another Location

Airport:

Trip Planner

Search our weather history database for the weather conditions in past years. The results will help you decide how hot, cold, wet, or windy it might be!

Date:

Astronomy

Aug. 23, 2013 Rise Set
Actual Time 6:57 AM EDT 8:23 PM EDT
Civil Twilight 6:28 AM EDT 8:51 PM EDT
Nautical Twilight 5:54 AM EDT 9:25 PM EDT
Astronomical Twilight 5:18 AM EDT 10:01 PM EDT
Moon 9:41 PM EDT (8/23) 9:52 AM EDT (8/23)
Length of Visible Light 14h 22m
Length of Day
13h 26m
Waning Gibbous, 91% of the Moon is Illuminated
Aug 23
Waning Gibbous
Aug 28
Last Quarter
Sep 5
New
Sep 12
First Quarter
Sep 19
Full

Hourly Weather History & Observations

Time (EDT) Temp. Heat Index Dew Point Humidity Pressure Visibility Wind Dir Wind Speed Gust Speed Precip Events Conditions
12:15 AM 66.2 °F - 66.2 °F 100% 30.10 in 4.0 mi NNW 4.6 mph - N/A   Overcast
12:35 AM 66.2 °F - 66.2 °F 100% 30.10 in 4.0 mi North 3.5 mph - N/A   Overcast
12:55 AM 66.2 °F - 66.2 °F 100% 30.11 in 5.0 mi Calm Calm - N/A   Overcast
1:15 AM 66.2 °F - 66.2 °F 100% 30.11 in 4.0 mi NNW 3.5 mph - N/A   Mostly Cloudy
1:35 AM 66.2 °F - 66.2 °F 100% 30.11 in 3.0 mi NNW 3.5 mph - N/A   Overcast
1:55 AM 66.2 °F - 66.2 °F 100% 30.10 in 3.0 mi Calm Calm - N/A   Mostly Cloudy
2:15 AM 64.4 °F - 64.4 °F 100% 30.10 in 2.5 mi NW 3.5 mph - N/A   Mostly Cloudy
2:35 AM 64.4 °F - 64.4 °F 100% 30.09 in 2.5 mi NW 3.5 mph - N/A   Mostly Cloudy
2:55 AM 64.4 °F - 64.4 °F 100% 30.09 in 2.5 mi NW 3.5 mph - N/A   Mostly Cloudy
3:15 AM 64.4 °F - 64.4 °F 100% 30.08 in 2.0 mi NW 3.5 mph - N/A   Overcast
3:35 AM 64.4 °F - 64.4 °F 100% 30.08 in 2.5 mi NW 3.5 mph - N/A   Overcast
3:55 AM 64.4 °F - 64.4 °F 100% 30.07 in 2.0 mi NW 4.6 mph - N/A   Mostly Cloudy
4:15 AM 62.6 °F - 62.6 °F 100% 30.07 in 1.8 mi WNW 4.6 mph - N/A   Scattered Clouds
4:35 AM 62.6 °F - 62.6 °F 100% 30.07 in 1.0 mi NW 4.6 mph - N/A   Overcast
4:55 AM 62.6 °F - 62.6 °F 100% 30.07 in 0.2 mi WNW 4.6 mph - N/A Fog Fog
5:15 AM 62.6 °F - 62.6 °F 100% 30.07 in 0.2 mi NW 4.6 mph - N/A Fog Fog
5:35 AM 62.6 °F - 62.6 °F 100% 30.07 in 0.2 mi Calm Calm - N/A Fog Fog
5:55 AM 64.4 °F - 64.4 °F 100% 30.08 in 0.5 mi North 3.5 mph - N/A Fog Fog
6:15 AM 64.4 °F - 64.4 °F 100% 30.09 in 1.8 mi North 3.5 mph - N/A   Overcast
6:35 AM 64.4 °F - 64.4 °F 100% 30.09 in 2.5 mi NW 3.5 mph - N/A   Overcast
6:55 AM 64.4 °F - 64.4 °F 100% 30.10 in 3.0 mi North - - N/A   Overcast
7:15 AM 64.4 °F - 64.4 °F 100% 30.10 in 2.0 mi North - - N/A   Overcast
7:35 AM 64.4 °F - 64.4 °F 100% 30.11 in 1.5 mi North 5.8 mph - N/A   Overcast
7:55 AM 64.4 °F - 64.4 °F 100% 30.11 in 1.8 mi North 6.9 mph - N/A   Overcast
8:15 AM 64.4 °F - 64.4 °F 100% 30.12 in 2.0 mi NNE 4.6 mph - N/A   Overcast
8:35 AM 64.4 °F - 64.4 °F 100% 30.12 in 4.0 mi NE 5.8 mph - N/A   Overcast
8:55 AM 66.2 °F - 66.2 °F 100% 30.13 in 4.0 mi NNE 3.5 mph - N/A   Overcast
9:15 AM 66.2 °F - 66.2 °F 100% 30.12 in 4.0 mi Calm Calm - N/A   Overcast
9:35 AM 68.0 °F - 68.0 °F 100% 30.12 in 3.0 mi NE 5.8 mph - N/A   Overcast
9:55 AM 68.0 °F - 68.0 °F 100% 30.13 in 3.0 mi NNE 4.6 mph - N/A   Overcast
10:15 AM 68.0 °F - 68.0 °F 100% 30.14 in 3.0 mi NNE 4.6 mph - N/A   Overcast
10:35 AM 68.0 °F - 68.0 °F 100% 30.14 in 3.0 mi NNE 3.5 mph - N/A   Overcast
10:55 AM 68.0 °F - 68.0 °F 100% 30.14 in 3.0 mi North 3.5 mph - N/A   Overcast
11:15 AM 68.0 °F - 68.0 °F 100% 30.15 in 4.0 mi NNE 4.6 mph - N/A   Overcast
11:35 AM 69.8 °F - 69.8 °F 100% 30.15 in 4.0 mi North 5.8 mph - N/A   Overcast
11:55 AM 69.8 °F - 69.8 °F 100% 30.15 in 3.0 mi North 4.6 mph - N/A   Overcast
12:15 PM 73.4 °F - 69.8 °F 88% 30.15 in 4.0 mi NE 5.8 mph - N/A   Overcast
12:35 PM 73.4 °F - 69.8 °F 88% 30.14 in 5.0 mi NNE 3.5 mph - N/A   Mostly Cloudy
12:55 PM 73.4 °F - 68.0 °F 83% 30.14 in 5.0 mi NNE 4.6 mph - N/A   Haze
1:15 PM 77.0 °F - 69.8 °F 78% 30.14 in 7.0 mi North 5.8 mph - N/A   Mostly Cloudy
1:35 PM 77.0 °F - 69.8 °F 78% 30.14 in 5.0 mi NNE 10.4 mph - N/A   Haze
1:55 PM 77.0 °F - 68.0 °F 74% 30.14 in 7.0 mi NNE 8.1 mph - N/A   Scattered Clouds
2:15 PM 78.8 °F - 68.0 °F 69% 30.14 in 7.0 mi North 6.9 mph - N/A   Scattered Clouds
2:35 PM 78.8 °F - 68.0 °F 69% 30.14 in 7.0 mi North 9.2 mph - N/A   Scattered Clouds
2:55 PM 78.8 °F - 68.0 °F 69% 30.14 in 10.0 mi NNE 6.9 mph - N/A   Scattered Clouds
3:15 PM 78.8 °F - 66.2 °F 65% 30.12 in 10.0 mi North 3.5 mph - N/A   Scattered Clouds
3:35 PM 78.8 °F - 66.2 °F 65% 30.12 in 10.0 mi North 6.9 mph - N/A   Scattered Clouds
3:55 PM 78.8 °F - 64.4 °F 61% 30.12 in 10.0 mi North 3.5 mph - N/A   Scattered Clouds
4:15 PM 80.6 °F 82.3 °F 64.4 °F 58% 30.12 in 10.0 mi NE 8.1 mph - N/A   Scattered Clouds
4:35 PM 80.6 °F 81.8 °F 62.6 °F 54% 30.11 in 10.0 mi NNE 4.6 mph - N/A   Scattered Clouds
4:55 PM 80.6 °F 81.8 °F 62.6 °F 54% 30.10 in 10.0 mi North 3.5 mph - N/A   Scattered Clouds
5:15 PM 80.6 °F 81.8 °F 62.6 °F 54% 30.10 in 10.0 mi ENE 4.6 mph - N/A   Scattered Clouds
5:35 PM 80.6 °F 81.5 °F 60.8 °F 51% 30.10 in 10.0 mi NE 4.6 mph - N/A   Scattered Clouds
5:55 PM 80.6 °F 81.8 °F 62.6 °F 54% 30.10 in 10.0 mi NE 5.8 mph - N/A   Mostly Cloudy
6:15 PM 78.8 °F - 60.8 °F 54% 30.10 in 10.0 mi NNE 4.6 mph - N/A   Scattered Clouds
6:35 PM 78.8 °F - 60.8 °F 54% 30.10 in 10.0 mi NNE 5.8 mph - N/A   Scattered Clouds
6:55 PM 78.8 °F - 60.8 °F 54% 30.10 in 10.0 mi NNE 8.1 mph - N/A   Scattered Clouds
7:15 PM 77.0 °F - 60.8 °F 57% 30.11 in 10.0 mi NNE 5.8 mph - N/A   Clear
7:35 PM 73.4 °F - 60.8 °F 65% 30.11 in 10.0 mi NNE 4.6 mph - N/A   Clear
7:55 PM 71.6 °F - 62.6 °F 73% 30.12 in 10.0 mi NNE 5.8 mph - N/A   Clear
8:15 PM 69.8 °F - 60.8 °F 73% 30.12 in 10.0 mi NNE 4.6 mph - N/A   Clear
8:35 PM 68.0 °F - 62.6 °F 83% 30.14 in 10.0 mi NNE 4.6 mph - N/A   Clear
8:55 PM 66.2 °F - 60.8 °F 83% 30.15 in 10.0 mi NNE 3.5 mph - N/A   Clear
9:15 PM 64.4 °F - 60.8 °F 88% 30.15 in 10.0 mi NE 4.6 mph - N/A   Clear
9:35 PM 66.2 °F - 60.8 °F 83% 30.17 in 10.0 mi NE 3.5 mph - N/A   Clear
9:55 PM 64.4 °F - 60.8 °F 88% 30.17 in 10.0 mi ENE 3.5 mph - N/A   Clear
10:15 PM 66.2 °F - 59.0 °F 78% 30.17 in 10.0 mi East 3.5 mph - N/A   Clear
10:35 PM 62.6 °F - 59.0 °F 88% 30.18 in 10.0 mi Calm Calm - N/A   Clear
10:55 PM 64.4 °F - 59.0 °F 83% 30.18 in 10.0 mi Calm Calm - N/A   Clear
11:15 PM 62.6 °F - 59.0 °F 88% 30.19 in 10.0 mi Calm Calm - N/A   Clear
11:35 PM 62.6 °F - 59.0 °F 88% 30.19 in 10.0 mi Calm Calm - N/A   Clear
11:55 PM 62.6 °F - 59.0 °F 88% 30.19 in 10.0 mi ESE 3.5 mph - N/A   Clear